Weather History for LEGE - February, 2013

Change the Weather History Date:

Wednesday, February 6, 2013

  Actual Average Record
Temperature  
Mean Temperature 45 °F -  
Max Temperature 58 °F 58 °F 69 °F (2001)
Min Temperature 32 °F 36 °F 21 °F (2015)
Degree Days  
Heating Degree Days 20    
Moisture  
Dew Point 34 °F    
Average Humidity 74    
Maximum Humidity 100    
Minimum Humidity 27    
Precipitation  
Precipitation 0.04 in 0.07 in - ()
Sea Level Pressure  
Sea Level Pressure 29.77 in    
Wind  
Wind Speed 3 mph ()    
Max Wind Speed 10 mph    
Max Gust Speed -    
Visibility 6.5 miles    
Events Rain , Thunderstorm    
Averages and records for this station are not official NWS values.
T = Trace of Precipitation, MM = Missing Value Source: Averaged Metar Reports

Daily Weather History Graph

Daily Weather History Graph

Search for Another Location

Airport or City:

Trip Planner

Search our weather history database for the weather conditions in past years. The results will help you decide how hot, cold, wet, or windy it might be!

Date:

Astronomy

Feb. 06, 2013 Rise Set
Actual Time 7:56 AM CET 6:10 PM CET
Civil Twilight 7:26 AM CET 6:39 PM CET
Nautical Twilight 6:53 AM CET 7:12 PM CET
Astronomical Twilight 6:21 AM CET 7:45 PM CET
Moon 4:26 AM CET (2/6) 2:10 PM CET (2/6)
Length of Visible Light 11h 12m
Length of Day
10h 14m
Waning Crescent, 19% of the Moon is Illuminated
Feb 6
Waning Crescent
Feb 10
New
Feb 17
First Quarter
Feb 25
Full
Mar 4
Last Quarter

Hourly Weather History & Observations

Time (CET) Temp. Windchill Dew Point Humidity Pressure Visibility Wind Dir Wind Speed Gust Speed Precip Events Conditions
12:00 AM 44.6 °F - 41.0 °F 87% 29.86 in 6.2 mi ENE 2.3 mph - N/A   Partly Cloudy
12:30 AM 42.8 °F - 35.6 °F 76% 29.86 in 6.2 mi Calm Calm - N/A   Partly Cloudy
1:00 AM 42 °F - 37 °F 76% 29.88 in - WSW 3.5 mph - -  
1:00 AM 41.0 °F 39.0 °F 35.6 °F 81% 29.86 in 6.2 mi WSW 3.5 mph - N/A   Partly Cloudy
1:30 AM 41.0 °F - 35.6 °F 81% 29.86 in 6.2 mi Variable 1.2 mph - N/A   Partly Cloudy
2:00 AM 41.0 °F - 35.6 °F 81% 29.83 in 6.2 mi Variable 2.3 mph - N/A   Partly Cloudy
3:00 AM 41.0 °F 38.0 °F 35.6 °F 81% 29.83 in 6.2 mi NW 4.6 mph - N/A   Partly Cloudy
3:30 AM 37.4 °F 33.8 °F 33.8 °F 87% 29.83 in 6.2 mi West 4.6 mph - N/A   Partly Cloudy
4:00 AM 39.2 °F 37.0 °F 35.6 °F 87% 29.83 in 6.2 mi WNW 3.5 mph - N/A   Partly Cloudy
4:30 AM 35.6 °F 31.7 °F 33.8 °F 93% 29.83 in - ENE 4.6 mph - N/A   Clear
5:00 AM 35.6 °F - 35.6 °F 100% 29.80 in - WNW 1.2 mph - N/A   Clear
5:30 AM 35.6 °F - 35.6 °F 100% 29.80 in - NNE 1.2 mph - N/A   Clear
6:00 AM 33.8 °F - 33.8 °F 100% 29.80 in - Variable 1.2 mph - N/A   Clear
6:30 AM 33.8 °F - 33.8 °F 100% 29.80 in 6.2 mi Variable 1.2 mph - N/A   Partly Cloudy
7:00 AM 35 °F - 32 °F 85% 29.82 in 9 mi West 1.2 mph - -   Scattered Clouds
7:00 AM 32.0 °F - 32.0 °F 100% 29.80 in 6.2 mi Calm Calm - N/A   Partly Cloudy
7:30 AM 33.8 °F 29.6 °F 33.8 °F 100% 29.80 in 6.2 mi West 4.6 mph - N/A   Partly Cloudy
8:00 AM 35.6 °F 31.7 °F 35.6 °F 100% 29.80 in 6.2 mi WNW 4.6 mph - N/A   Partly Cloudy
8:30 AM 33.8 °F - 33.8 °F 100% 29.80 in 6.2 mi Calm Calm - N/A   Partly Cloudy
9:30 AM 37.4 °F - 35.6 °F 93% 29.80 in 6.2 mi Variable 1.2 mph - N/A   Partly Cloudy
10:00 AM 41.0 °F - 37.4 °F 87% 29.80 in 6.2 mi Calm Calm - N/A   Partly Cloudy
10:30 AM 42.8 °F 41.1 °F 37.4 °F 81% 29.80 in 6.2 mi South 3.5 mph - N/A   Partly Cloudy
11:00 AM 44.6 °F - 35.6 °F 71% 29.77 in 6.2 mi Variable 1.2 mph - N/A   Partly Cloudy
11:30 AM 48.2 °F - 33.8 °F 58% 29.77 in 6.2 mi Variable 2.3 mph - N/A   Partly Cloudy
12:00 PM 48.2 °F - 32.0 °F 54% 29.74 in 6.2 mi Variable 2.3 mph - N/A   Partly Cloudy
12:30 PM 50.0 °F - 30.2 °F 47% 29.74 in 6.2 mi Calm Calm - N/A   Partly Cloudy
1:00 PM 54 °F - 30 °F 27% 29.73 in 16 mi WNW 5.8 mph - -   Scattered Clouds
1:00 PM 51.8 °F - 30.2 °F 44% 29.74 in 6.2 mi WNW 3.5 mph - N/A   Partly Cloudy
1:30 PM 53.6 °F - 30.2 °F 41% 29.71 in 6.2 mi NNW 6.9 mph - N/A   Partly Cloudy
2:00 PM 53.6 °F - 28.4 °F 38% 29.71 in 6.2 mi NNW 5.8 mph - N/A   Partly Cloudy
2:30 PM 53.6 °F - 26.6 °F 35% 29.71 in 6.2 mi NW 10.4 mph - N/A   Partly Cloudy
3:00 PM 55.4 °F - 26.6 °F 33% 29.68 in 6.2 mi WNW 6.9 mph - N/A   Partly Cloudy
3:30 PM 55.4 °F - 26.6 °F 33% 29.68 in 6.2 mi ENE 4.6 mph - N/A   Partly Cloudy
4:30 PM 55.4 °F - 26.6 °F 33% 29.68 in 6.2 mi North 3.5 mph - N/A   Scattered Clouds
5:00 PM 51.8 °F - 30.2 °F 44% 29.68 in 6.2 mi NE 8.1 mph - N/A   Scattered Clouds
5:30 PM 50.0 °F - 32.0 °F 50% 29.68 in 6.2 mi ENE 6.9 mph - N/A   Scattered Clouds
6:30 PM 48.2 °F - 32.0 °F 54% 29.71 in 6.2 mi NE 3.5 mph - N/A   Light Drizzle
6:45 PM 46.4 °F 41.9 °F 32.0 °F 57% 29.71 in 6.2 mi ENE 9.2 mph - N/A Rain Rain
6:49 PM 44.6 °F 40.2 °F 32.0 °F 61% 29.71 in 6.2 mi NE 8.1 mph - N/A Rain , Thunderstorm Thunderstorms and Rain
7:00 PM 46 °F - 35 °F 54% 29.72 in - North 3.5 mph - -   Unknown Precipitation
7:00 PM 44.6 °F 43.1 °F 32.0 °F 61% 29.71 in 6.2 mi NE 3.5 mph - N/A Rain , Thunderstorm Thunderstorms and Rain
7:16 PM 41.0 °F - 35.6 °F 81% 29.74 in 6.2 mi Variable 2.3 mph - N/A Rain Rain
7:30 PM 42.8 °F - 35.6 °F 76% 29.74 in 6.2 mi Variable 1.2 mph - N/A Rain Light Rain
8:00 PM 41.0 °F - 35.6 °F 81% 29.74 in 6.2 mi Variable 2.3 mph - N/A   Scattered Clouds
8:30 PM 39.2 °F - 35.6 °F 87% 29.71 in 6.2 mi Calm Calm - N/A   Scattered Clouds
9:00 PM 37.4 °F - 37.4 °F 100% 29.71 in 6.2 mi Variable 1.2 mph - N/A   Scattered Clouds
9:30 PM 37.4 °F 34.9 °F 37.4 °F 100% 29.74 in 6.2 mi North 3.5 mph - N/A   Partly Cloudy
10:00 PM 37.4 °F - 37.4 °F 100% 29.74 in 6.2 mi Variable 1.2 mph - N/A   Partly Cloudy
10:30 PM 35.6 °F - 35.6 °F 100% 29.77 in 6.2 mi Calm Calm - N/A   Partly Cloudy
11:00 PM 35.6 °F - 35.6 °F 100% 29.74 in 6.2 mi Variable 1.2 mph - N/A   Partly Cloudy
11:30 PM 37.4 °F 34.9 °F 33.8 °F 87% 29.74 in 6.2 mi WNW 3.5 mph - N/A   Partly Cloudy